www.pogodaiklimat.ru

Погода и климат >> Архив погоды >> Италия >> Альгеро


ПОГОДА в Альгеро

  • Прогноз погоды в Альгеро
  • Монитор погоды в Альгеро

АРХИВ ПОГОДЫ в Альгеро

Время (UTC), дата Ветер
(напр.,м/с)
 
Видим.   Явления Облачность Т
(С)
Тd
(С)
f
(%)
Тe
(С)
Тes
(С)
Комфортность P
(гПа)
Po
(гПа)
Тmin
(С)
Tmax
(С)
R
(мм)
R24
(мм)
S
(см)
15 20.06 ЮЗ 3 35 км ясно +28.7 +13.0 38 +30 +38 жарко 1013.5 1010.3
18 20.06 ЮЗ 2 35 км ясно +27.6 +9.2 31 +28 +28 жарко 1012.8 1009.5 +30.6
21 20.06 СВ 3 15 км ясно +21.3 +16.6 75 +25 +25 комфорт 1013.1 1009.9
00 21.06 З 2 30 км ясно +18.3 +14.9 81 +19 +19 1014.6 1011.3
03 21.06 СВ 3 н/о н/о +19.9 +11.9 60 +22 +22 комфорт 1012.2 1009.0
06 21.06 СВ 3 25 км ясно +22.9 +17.5 72 +28 +31 душно 1012.6 1009.3 +17.2
09 21.06 ЮЗ 2 30 км ясно +30.8 +10.2 28 +31 +45 жарко 1012.3 1009.1
12 21.06 З 4 25 км 8/0
[Cs]
+27.0 +16.7 53 +31 +42 душно 1014.3 1011.0
15 21.06 ЮЗ 5 45 км 8/0
[Cs]
+30.5 +14.9 39 +33 +38 душно 1011.6 1008.4
18 21.06 СЗ 2 30 км 9/0 2000 м
[Ac cast Cs]
+24.9 +19.0 70 +30 +30 душно 1012.8 1009.6 +31.8
21 21.06 нст 1 30 км 10/0
[As op Cs]
+23.3 +20.8 86 +31 +31 очень
душно
1013.1 1009.9
00 22.06 З 5 15 км 9/0 2000 м
[Cs]
+24.1 +19.4 75 +29 +29 душно 1013.3 1010.0
03 22.06 С 5 15 км гроза, ливневой дождь 9/3 900 м
[Cb cap Ac lent Cs]
+22.9 +20.7 87 +30 +30 очень
душно
1012.7 1009.4
06 22.06 нст 1 28 км 9/1 420 м
[St Ac cast Cs]
+23.2 +20.0 82 +30 +32 очень
душно
1013.9 1010.7 +21.8
09 22.06 СЗ 2 30 км 1/1 750 м
[Cu hum]
+27.1 +19.5 63 +33 +46 очень
душно
1014.2 1010.9
12 22.06 СЗ 5 30 км 1/1 600 м
[]
+26.5 +19.9 67 +32 +41 очень
душно
1014.1 1010.9
15 22.06 С 5 25 км 4/0
[Ci fib]
+25.6 +17.9 62 +30 +35 душно 1013.9 1010.6
18 22.06 СВ 3 30 км 9/0
[Cs]
+24.0 +19.3 75 +29 +29 душно 1014.6 1011.4 +28.6
21 22.06 В 1 25 км 3/0
[Ci fib]
+21.0 +19.3 90 +27 +27 душно 1015.5 1012.3
00 23.06 СВ 2 25 км 4/0
[Ci fib]
+18.8 +18.3 97 +21 +21 комфорт 1015.2 1011.9
03 23.06 СВ 2 22 км 3/3 300 м
[St Ci fib]
+17.3 +16.8 97 +18 +18 1014.9 1011.6
06 23.06 СВ 4 500 м туман 10/10 60 м
[St]
+19.5 +19.5 100 +22 +22 комфорт 1015.0 1011.7 +16.4
09 23.06 В 3 20 км ясно +27.7 +15.9 49 +31 +44 душно 1015.3 1012.1
12 23.06 В 4 20 км 3/0
[Ci fib]
+30.4 +12.3 33 +31 +44 жарко 1015.4 1012.2 11
15 23.06 В 6 55 км 8/0
[Cs]
+29.6 +15.4 42 +32 +36 душно 1015.0 1011.8
18 23.06 В 5 35 км 5/0
[Ci fib]
+25.6 +14.5 50 +28 +28 жарко 1014.9 1011.6 +31.1 11
21 23.06 СВ 3 30 км 4/0
[Ci fib]
+20.3 +18.0 87 +24 +24 комфорт 1015.9 1012.6
00 24.06 В 3 30 км ясно +19.7 +19.0 96 +23 +23 комфорт 1016.3 1013.1
03 24.06 25 км ясно +17.3 +17.1 99 1015.7 1012.5
09 24.06 В 5 29 км ясно +32.1 +13.2 32 +33 +41 жарко 1015.3 1012.1
12 24.06 СВ 4 29 км ясно +35.9 +15.0 29 +37 +52 опасность
солнечного
удара
1014.8 1011.6
15 24.06 СЗ 2 55 км ясно +34.9 +13.4 27 +35 +45 очень
жарко
1015.1 1011.8
18 24.06 СВ 3 30 км ясно +31.3 +16.0 40 +34 +35 душно 1015.3 1012.0 +36.1
21 24.06 В 3 15 км ясно +25.4 +15.0 53 +28 +28 жарко 1016.2 1013.0
00 25.06 СВ 2 30 км ясно +23.8 +10.6 43 +25 +25 комфорт 1016.5 1013.2
03 25.06 30 км ясно +20.1 +11.9 59 1016.7 1013.4
06 25.06 СВ 2 30 км 9/0
[Cs]
+24.4 +14.1 53 +27 +29 жарко 1018.2 1015.0 +17.5
09 25.06 В 4 30 км ясно +33.3 +15.6 35 +36 +47 очень
душно
1018.1 1014.9
12 25.06 В 7 30 км ясно +36.1 +17.5 33 +39 +44 очень
душно
1017.6 1014.3
15 25.06 СВ 7 55 км ясно +36.3 +15.4 29 +38 +41 очень
душно
1017.0 1013.8
18 25.06 СВ 4 30 км ясно +31.9 +16.4 39 +35 +35 очень
душно
1017.3 1014.0 +37.3
21 25.06 ЮЗ 3 15 км ясно +24.6 +23.1 91 +33 +33 очень
душно
1019.2 1015.9
00 26.06 В 1 н/о н/о +22.0 +20.7 92 +28 +28 душно 1019.7 1016.4
03 26.06 СВ 1 30 км ясно +19.3 +18.9 98 +23 +23 комфорт 1019.1 1015.8
06 26.06 штиль 0 25 км ясно +25.5 +17.5 61 +30 +33 душно 1019.9 1016.7 +18.6
09 26.06 25 км ясно +34.2 +17.4 37 1020.4 1017.1
15 26.06 В 10 55 км ясно +35.7 +12.6 25 +36 +36 очень
жарко
1018.6 1015.3
21 26.06 СВ 3 30 км ясно +25.4 +18.4 65 +30 +30 душно 1020.1 1016.8
00 27.06 СВ 3 15 км н/о +23.4 +19.1 77 +30 +30 очень
душно
1019.7 1016.4
03 27.06 В 2 15 км ясно +20.5 +18.3 87 +25 +25 комфорт 1019.4 1016.2
06 27.06 40 км ясно +24.9 +16.6 60 1019.7 1016.5 +20.3
09 27.06 40 км ясно +33.5 +17.0 37 1019.2 1015.9
12 27.06 СЗ 5 45 км 1/1 1200 м
[Cu hum]
+31.9 +20.1 50 +38 +49 очень
душно
1018.7 1015.4

 

Местоположение метеостанции Альгеро (Италия): широта 40.63 долгота 8.28 высота над уровнем моря 40 м.

В архиве по умолчанию представлена погода в Альгеро за последнюю неделю. Архивные данные за месяц целиком и за предыдущие месяцы, начиная с января 2011 года, Вы можете получить, выбрав интересующий диапазон дат из раскрывающегося списка и нажав кнопку "Ввод!".


*Определитесь, кто Вы:
робот инопланетянин человек

Внимание! Время в таблицах - всемирное. Для получения местного времени необходимо прибавить поправку, которая равна 1 ч.

Смотрите также архив погоды в соседних городах и на ближайших метеорологических станциях:

Погода на Капо Кацция (Италия) (11 км)
Погода на Капо Фраска (Италия) (99 км)
Погода в Ольвии (Италия) (109 км)
Погода на Мысе Пертюзато (Франция) (111 км)
Погода в Фигари (Франция) (119 км)
Погода на Капо Беллависто (Италия) (145 км)
Погода в Ла Парате (Франция) (146 км)
Погода в Аяччо (Франция) (150 км)
Погода в Дечимоманну (Италия) (154 км)
Погода в Соленцаре (Франция) (171 км)

Пояснения к столбцам:

Ветер - указаны скорость ветра в м/с - средняя за 10 мин, порывы в срок и между сроками (в фигурных скобках) и направление, откуда дует ветер: С - северный, СВ - северо-восточный, В - восточный, ЮВ - юго-восточный, Ю - южный, ЮЗ - юго-западный, З - западный, СЗ - северо-западный.
Видимость - горизонтальная дальность видимости в метрах или километрах. При видимости от 1 до 10 км при отсутствии осадков обычно наблюдается дымка, при ухудшении видимости до 1 км и менее - туман. В сухую погоду видимость может ухудшаться дымом, пылью или мглою.
Явления - указаны атмосферные явления, наблюдавшиеся в срок или в последний час перед сроком; фигурными скобками обозначены явления, наблюдавшиеся между сроками (за 1-3 часа до срока); квадратными скобками обозначены град или гололедные отложения с указанием их диаметра в мм.
Облачность - указаны через наклонную черту общая и нижняя облачность в баллах и высота нижней границы облаков в метрах; квадратными скобками обозначены формы облаков: Ci - перистые, Cs - перисто-слоистые, Cc - перисто-кучевые, Ac - высококучевые, As - высокослоистые, Sc - слоисто-кучевые, Ns - слоисто-дождевые, Cu - кучевые, Cb - кучево-дождевые. Подробнее классификацию облаков см. в Атласе облаков (PDF).
T - Температура воздуха - температура, измеренная на высоте 2 м над землей.
Td - Температура точки росы - температура, при понижении до которой содержащийся в воздухе водяной пар достигнет насыщения.
f - Относительная влажность воздуха - влажноcть воздуха, измеренная на высоте 2 м над землей.
Te - Эффективная температура - температура, которую ощущает одетый по сезону человек в тени. Характеристика душности погоды. При расчете учитывается влияние влажности воздуха и скорости ветра на теплоощущения человека.
Tes - Эффективная температура на солнце - температура, которую ощущает человек, с поправкой на солнечный нагрев. Характеристика знойности погоды. Зависит от высоты солнца над горизонтом, облачности и скорости ветра. Ночью, в пасмурную погоду, а также при ветре 12 м/с и более поправка равна нулю.
P - Атмосферное давление - приведенное к уровню моря атмосферное давление.
Po - Атмосферное давление - измеренное на уровне метеостанции атмосферное давление.
Tmin - Минимальная температура - минимум температуры воздуха на высоте 2 м над землей.
Tmax - Максимальная температура - максимум температуры воздуха на высоте 2 м над землей.
R - Количество осадков - Количество выпавших осадков за период времени, мм. При наведении курсора мыши на число - период времени, за который выпало указанное количество осадков.
R24 - Количество осадков - Количество выпавших осадков за 24 часа, мм.
S - Снежный покров - Высота снежного покрова, см. При наведении курсора мыши на число - состояние снежного покрова и степень покрытия местности в баллах.